Mountain Home, AR

2:40 PM CDT on March 29, 2017 (GMT -0500)
Baxter County Regional

Weather History for KBPK - September, 2013

Change the Weather History Date:

Friday, September 20, 2013

  Actual Average (KFLP) Record (KFLP)
Temperature  
Mean Temperature 67 °F -  
Max Temperature 73 °F 79 °F 93 °F (2000)
Min Temperature 60 °F 54 °F 42 °F (2003)
Cooling Degree Days 2    
Growing Degree Days 17 (Base 50)    
Moisture  
Dew Point 65 °F    
Average Humidity 90    
Maximum Humidity 94    
Minimum Humidity 78    
Precipitation  
Precipitation 1.07 in - - ()
Sea Level Pressure  
Sea Level Pressure 29.93 in    
Wind  
Wind Speed 3 mph (NW)    
Max Wind Speed 10 mph    
Max Gust Speed 23 mph    
Visibility 6 miles    
Events Rain , Thunderstorm    
Averages and records for this station are not official NWS values.
T = Trace of Precipitation, MM = Missing Value Source: NWS Daily Summary

Daily Weather History Graph

Daily Weather History Graph

Search for Another Location

Airport or City:

Trip Planner

Search our weather history database for the weather conditions in past years. The results will help you decide how hot, cold, wet, or windy it might be!

Date:

Astronomy

Sep. 20, 2013 Rise Set
Actual Time 6:56 AM CDT 7:09 PM CDT
Civil Twilight 6:30 AM CDT 7:35 PM CDT
Nautical Twilight 6:00 AM CDT 8:05 PM CDT
Astronomical Twilight 5:29 AM CDT 8:35 PM CDT
Moon 7:47 PM CDT (9/20) 8:08 AM CDT (9/20)
Length of Visible Light 13h 04m
Length of Day
12h 12m
Full, 98% of the Moon is Illuminated
Sep 20
Full
Sep 26
Last Quarter
Oct 4
New
Oct 11
First Quarter
Oct 18
Full

Hourly Weather History & Observations

Time (CDT) Temp. Dew Point Humidity Pressure Visibility Wind Dir Wind Speed Gust Speed Precip Events Conditions
12:53 AM 72.0 °F 66.9 °F 84% 29.91 in 7.0 mi Calm Calm - N/A   Clear
1:53 AM 73.0 °F 66.0 °F 79% 29.89 in 7.0 mi Calm Calm - N/A   Clear
2:53 AM 72.0 °F 68.0 °F 87% 29.94 in 7.0 mi NW 10.4 mph 23.0 mph 0.00 in Rain Light Rain
2:57 AM 71.6 °F 66.2 °F 83% 29.97 in 7.0 mi WNW 10.4 mph 23.0 mph 0.00 in Rain , Thunderstorm Light Rain
3:08 AM 69.8 °F 66.2 °F 88% 29.96 in 10.0 mi NNW 8.1 mph - 0.00 in Thunderstorm Overcast
3:10 AM 69.8 °F 66.2 °F 88% 29.96 in 10.0 mi Variable 6.9 mph - 0.00 in   Overcast
3:29 AM 69.8 °F 66.2 °F 88% 29.96 in 5.0 mi Variable 4.6 mph - 0.02 in Rain , Thunderstorm Light Rain
3:35 AM 69.8 °F 66.2 °F 88% 29.96 in 2.5 mi Variable 4.6 mph - 0.10 in Rain , Thunderstorm Rain
3:41 AM 68.0 °F 66.2 °F 94% 29.95 in 1.8 mi Variable 5.8 mph - 0.14 in Rain , Thunderstorm Heavy Rain
3:45 AM 68.0 °F 66.2 °F 94% 29.96 in 2.0 mi Variable 4.6 mph - 0.16 in Rain , Thunderstorm Heavy Rain
3:53 AM 68.0 °F 66.0 °F 93% 29.94 in 1.8 mi Variable 4.6 mph - 0.24 in Rain , Thunderstorm Heavy Thunderstorms and Rain
4:07 AM 68.0 °F 66.2 °F 94% 29.97 in 2.0 mi Variable 4.6 mph - 0.10 in Rain , Thunderstorm Heavy Thunderstorms and Rain
4:15 AM 68.0 °F 66.2 °F 94% 29.96 in 1.5 mi Variable 4.6 mph - 0.21 in Rain , Thunderstorm Heavy Thunderstorms and Rain
4:33 AM 66.2 °F 64.4 °F 94% 29.97 in 2.5 mi Calm Calm - 0.34 in Rain , Thunderstorm Thunderstorms and Rain
4:41 AM 66.2 °F 64.4 °F 94% 29.97 in 4.0 mi Calm Calm - 0.35 in Rain Rain
4:53 AM 66.9 °F 64.9 °F 93% 29.95 in 3.0 mi Variable 3.5 mph - 0.39 in Rain Rain
5:05 AM 66.2 °F 64.4 °F 94% 29.95 in 2.5 mi NNW 6.9 mph - 0.08 in Rain Heavy Rain
5:22 AM 66.2 °F 64.4 °F 94% 29.95 in 5.0 mi Variable 3.5 mph - 0.13 in Rain Rain
5:53 AM 66.9 °F 64.9 °F 93% 29.93 in 10.0 mi West 3.5 mph - 0.13 in Rain Light Rain
6:32 AM 66.2 °F 64.4 °F 94% 29.95 in 7.0 mi SW 3.5 mph - 0.02 in Rain Light Rain
6:53 AM 66.9 °F 64.9 °F 93% 29.94 in 6.0 mi SW 5.8 mph - 0.04 in Rain Light Rain
7:09 AM 66.2 °F 64.4 °F 94% 29.97 in 5.0 mi SSW 6.9 mph - 0.02 in Rain Rain
7:34 AM 66.2 °F 64.4 °F 94% 29.96 in 5.0 mi Calm Calm - 0.04 in Rain Light Rain
7:53 AM 66.9 °F 64.9 °F 93% 29.94 in 5.0 mi Calm Calm - 0.04 in Rain Light Rain
8:21 AM 66.2 °F 64.4 °F 94% 29.97 in 5.0 mi Calm Calm - 0.01 in Rain Light Rain
8:50 AM 66.2 °F 64.4 °F 94% 29.96 in 7.0 mi Calm Calm - 0.02 in Rain Light Rain
8:53 AM 66.9 °F 64.9 °F 93% 29.94 in 8.0 mi Calm Calm - 0.02 in Rain Light Rain
9:53 AM 68.0 °F 66.0 °F 93% 29.93 in 10.0 mi Calm Calm - 0.00 in   Overcast
10:38 AM 68.0 °F 66.2 °F 94% 29.97 in 6.0 mi Calm Calm - 0.01 in Rain Light Rain
10:53 AM 69.1 °F 66.9 °F 93% 29.95 in 7.0 mi Calm Calm - 0.01 in Rain Light Rain
11:00 AM 69.8 °F 66.2 °F 88% 29.97 in 8.0 mi Calm Calm - 0.00 in Rain Light Rain
11:53 AM 70.0 °F 66.9 °F 90% 29.94 in 8.0 mi Calm Calm - 0.01 in Rain Light Rain
12:08 PM 69.8 °F 66.2 °F 88% 29.96 in 8.0 mi Calm Calm - 0.00 in Rain Light Rain
12:25 PM 69.8 °F 66.2 °F 88% 29.96 in 6.0 mi Calm Calm - 0.01 in Rain Light Rain
12:35 PM 69.8 °F 66.2 °F 88% 29.97 in 6.0 mi Calm Calm - 0.01 in Rain Light Rain
12:53 PM 70.0 °F 66.9 °F 90% 29.94 in 5.0 mi Calm Calm - 0.03 in Rain Light Rain
1:53 PM 70.0 °F 66.9 °F 90% 29.92 in 9.0 mi Calm Calm - 0.01 in Rain Light Rain
2:36 PM 71.6 °F 68.0 °F 88% 29.92 in 10.0 mi Calm Calm - 0.00 in Rain Light Rain
2:53 PM 71.1 °F 68.0 °F 90% 29.89 in 9.0 mi Calm Calm - 0.00 in   Mostly Cloudy
3:02 PM 71.6 °F 68.0 °F 88% 29.91 in 10.0 mi Calm Calm - N/A   Mostly Cloudy
3:28 PM 71.6 °F 68.0 °F 88% 29.91 in 10.0 mi Calm Calm - N/A   Mostly Cloudy
3:36 PM 71.6 °F 68.0 °F 88% 29.90 in 8.0 mi Calm Calm - N/A   Overcast
3:53 PM 69.1 °F 66.9 °F 93% 29.88 in 2.0 mi NNW 4.6 mph - 0.03 in Rain Rain
3:56 PM 69.8 °F 66.2 °F 88% 29.90 in 1.5 mi NNW 3.5 mph - 0.02 in Rain Rain
4:03 PM 69.8 °F 66.2 °F 88% 29.91 in 0.8 mi Calm Calm - 0.09 in Rain Heavy Rain
4:07 PM 69.8 °F 66.2 °F 88% 29.91 in 1.0 mi Variable 5.8 mph - 0.10 in Rain Rain
4:10 PM 68.0 °F 66.2 °F 94% 29.91 in 2.0 mi Variable 4.6 mph - 0.11 in Rain Rain
4:18 PM 68.0 °F 66.2 °F 94% 29.91 in 3.0 mi Calm Calm - 0.12 in Rain Light Rain
4:35 PM 68.0 °F 66.2 °F 94% 29.92 in 9.0 mi Calm Calm - 0.12 in   Overcast
4:53 PM 68.0 °F 66.0 °F 93% 29.89 in 9.0 mi NNW 3.5 mph - 0.12 in   Overcast
5:26 PM 68.0 °F 66.2 °F 94% 29.91 in 8.0 mi NNW 3.5 mph - N/A   Overcast
5:33 PM 68.0 °F 66.2 °F 94% 29.90 in 8.0 mi Variable 3.5 mph - N/A   Overcast
5:53 PM 66.9 °F 64.9 °F 93% 29.88 in 10.0 mi NNW 3.5 mph - N/A   Mostly Cloudy
6:53 PM 64.0 °F 57.0 °F 78% 29.89 in 10.0 mi Calm Calm - N/A   Mostly Cloudy
7:53 PM 64.0 °F 57.9 °F 80% 29.90 in 10.0 mi NNW 3.5 mph - N/A   Overcast
8:53 PM 63.0 °F 57.9 °F 84% 29.91 in 10.0 mi NW 4.6 mph - N/A   Mostly Cloudy
9:53 PM 62.1 °F 55.9 °F 80% 29.91 in 10.0 mi Calm Calm - N/A   Partly Cloudy
10:53 PM 61.0 °F 55.9 °F 83% 29.92 in 10.0 mi Calm Calm - N/A   Clear
11:53 PM 60.1 °F 55.9 °F 86% 29.92 in 10.0 mi Calm Calm - N/A   Clear